Regional Weather Roundup
Issued by NWS

Home | Current Version | Previous Version | Graphics & Text | Print | Product List | Glossary On
Versions: 1 2 3 4 5 6 7 8 9 10 11 12 13 14 15 16 17 18 19 20 21 22 23 24 25 26 27 28 29 30 31 32 33 34 35 36 37 38 39 40 41 42 43 44 45 46 47 48 49 50
000
ASUS43 KLOT 011500
RWRIL

ILLINOIS REGIONAL WEATHER ROUNDUP
NATIONAL WEATHER SERVICE CHICAGO/ROMEOVILLE IL
1000 AM CDT FRI AUG 01 2014

NOTE: "FAIR" INDICATES FEW OR NO CLOUDS BELOW 12,000 FEET WITH NO
SIGNIFICANT WEATHER AND/OR OBSTRUCTIONS TO VISIBILITY.

* THESE STATIONS ARE NOT UNDER NWS QUALITY CONTROL. THEY ALSO MAY NOT
  REPORT WEATHER SUCH AS PRECIPITATION OR FOG.

ILZ001-002-007-009-015-016-024-011600-
NORTHWEST ILLINOIS

CITY           SKY/WX    TMP DP  RH WIND       PRES   REMARKS
MOLINE         SUNNY     75  63  66 SW7       30.09S
STERLING*      MOSUNNY   75  63  64 SW5       30.11S
$$

ILZ003-004-008-010-011-017-018-011600-
NORTH CENTRAL ILLINOIS

CITY           SKY/WX    TMP DP  RH WIND       PRES   REMARKS
ROCKFORD       MOSUNNY   76  61  59 SW5       30.11R
$$

ILZ005-006-012>014-019>023-011600-
NORTHEAST ILLINOIS

CITY           SKY/WX    TMP DP  RH WIND       PRES   REMARKS
CHICAGO-OHARE  MOSUNNY   78  56  46 VRB6      30.08S
CHICAGO-MIDWAY MOSUNNY   76  58  53 SW6       30.09R
AURORA         CLOUDY    74  61  63 SW7       30.10R
WAUKEGAN       SUNNY     76  61  59 W5        30.08S
DUPAGE AIRPORT MOSUNNY   77  60  55 VRB5      30.09S
WHEELING       MOSUNNY   80  60  50 W7        30.10S HX  81
NORTHERLY ISL    N/A     77  59  53 SW1         N/A
$$

LMZ740>746-011600-
SOUTHERN LAKE MICHIGAN

STATION/POSITION SKY/WX   TEMP    WIND        PRES    VSBY  WAVE
                          AIR SEA DIR/SP/G                  HT/PER
                          (F)     (DEG/KT/KT) (MB)    (MI)  (FT/S)
SOUTHERN BUOY              64 63  210/  6/  8 1018.6R         0
WAUKEGAN HARBOR            73     260/ 10/ 13   N/A
HARRISON CRIB              72     270/  9/ 10   N/A
BURNHAM HARBOR             75     280/  2/ 11   N/A
CALUMET HARBOR             72     250/  3/  7 1017.7F
MICHIGAN CITY              71     220/  5/  6   N/A
MICHIGAN CITY 6N           72 69   CALM  /  2   N/A           1
ST. JOSEPH                 68 69  190/  6/  8   N/A           1
$$

ILZ025>027-034>036-040-047-049-050-058-095>099-011600-
WEST-CENTRAL ILLINOIS

CITY           SKY/WX    TMP DP  RH WIND       PRES   REMARKS
QUINCY         MOSUNNY   76  60  57 CALM      30.09S
GALESBURG*     MOSUNNY   78  64  61 CALM      30.10S HX  80
$$

ILZ028>032-037-038-041>044-048-051>054-059>061-011600-
CENTRAL ILLINOIS

CITY           SKY/WX    TMP DP  RH WIND       PRES   REMARKS
DECATUR        SUNNY     76  64  66 CALM      30.10S
PEORIA         MOSUNNY   79  64  60 VRB6      30.10R HX  81
SPRINGFIELD    CLOUDY    76  66  71 CALM      30.09S
TAYLORVILLE    NOT AVBL
$$

ILZ033-039-045-046-055>057-062-063-011600-
EAST-CENTRAL ILLINOIS

CITY           SKY/WX    TMP DP  RH WIND       PRES   REMARKS
CHAMPAIGN      SUNNY     76  65  68 CALM      30.11S
MATTOON        SUNNY     77  65  66 CALM      30.10S
$$

ILZ079-100>102-011600-
SOUTHWEST ILLINOIS

CITY           SKY/WX    TMP DP  RH WIND       PRES   REMARKS
ALTON          MOSUNNY   75  72  88 CALM      30.09
CAHOKIA*       SUNNY     78  67  68 SE5       30.09S HX  80
$$

ILZ064>066-069>071-074>076-080>082-084>086-088>090-092>094-011600-
SOUTH-CENTRAL ILLINOIS

CITY           SKY/WX    TMP DP  RH WIND       PRES   REMARKS
CARBONDALE     MOSUNNY   76  65  68 NW3       30.09F
MARION         SUNNY     75  64  69 MISG      30.10F
MT. VERNON     SUNNY     77  64  65 CALM      30.11S
$$

ILZ067-068-072-073-078-083-087-091-011600-
SOUTHEAST ILLINOIS

CITY           SKY/WX    TMP DP  RH WIND       PRES   REMARKS
LAWRENCEVILLE  SUNNY     78  66  66 E3        30.11S HX  80
HARRISBURG*    SUNNY     75  69  81 CALM      30.11S
$$

ABBREVIATIONS USED IN REMARKS
   TC - TEMPERATURE IN CELSIUS
  WCI - WIND CHILL INDEX
   HX - HEAT INDEX
  VSB - VISIBILITY
$$




USA.gov is the U.S. government's official web portal to all federal, state and local government web resources and services.